Terug naar catalogus

STARLINK-32200

ActiefCommunicatieVLEO
NORAD 60258·PAYLOAD·🇺🇸 United States

Gelanceerd Jul 27, 2024 vanaf Cape Canaveral Space Force Station

Loading…

Volgende Passages (komende 24 uur)

TLE

VersSource: CelesTrak SupGP

Epoch: Sep 14, 2026, 20:52 UTC

1 60258C 24131D   26257.86993056  .00051454  00000+0  15204-2 0  2579
2 60258  53.1571 252.0904 0001271  94.9329 344.0342 15.34361463    11

Volg STARLINK-32200 in realtime met AllMySat

Download on the App Store